Flag for Norway Weather past 2 weeks in Langesund, Norway

Now
59 °F

Cool.


Feels Like: 60 °F
Forecast: 44 / 66 °F
Wind: 3 mph from Northeast

Location: Jomfruland Fyr

Current Time: Sep 19, 2014 at 12:07:57 PM

Latest Report: Sep 19, 2014 at 11:00 AM


Visibility: N/A

Pressure: 30.11 "Hg

Humidity: 70%

Dew point: 49 °F

Location of LangesundLocation

Historic Weather in Langesund — Graph

°F

Langesund temperature yesterday

Maximum temperature yesterday: 64 °F (at 4:00 PM)
Minimum temperature yesterday: 53 °F (at 7:00 AM)
Average temperature yesterday: 57 °F

Past Weeks' High & Low Weather Summary

 TemperatureHumidityPressure
High67 °F (Sep 14, 4:00 PM)95% (Sep 5, 5:00 AM)30.46 "Hg (Sep 5, 5:00 AM)
Low52 °F (Sep 9, 6:00 AM)53% (Sep 13, 3:00 PM)29.78 "Hg (Sep 9, 6:00 AM)
Average59 °F80%30.17 "Hg
* Reported Sep 4 10:00 AM — Sep 19 10:00 AM, Langesund, Weather by CustomWeather, © 2014

Note: Actual official high and low records may vary slightly from our data, if they occured in-between our weather recording intervals... More about our weather records

Advertising

Langesund weather history for previous 24 hours

 ConditionsComfort  
Time TempWeatherWind HumidityBarometerVisibility
10:00 AM
Sep 19
58 °FCool.3 mph74%30.11 "HgN/A
9:00 AM55 °FCool.3 mph77%30.11 "HgN/A
8:00 AM53 °FCool.2 mph83%30.10 "HgN/A
7:00 AM53 °FCool.2 mph85%30.10 "HgN/A
6:00 AM53 °FCool.2 mph86%30.10 "HgN/A
5:00 AM54 °FCool.2 mph86%30.10 "HgN/A
4:00 AM54 °FCool.2 mph86%30.11 "HgN/A
3:00 AM55 °FCool.2 mph85%30.12 "HgN/A
2:00 AM56 °FCool.2 mph83%30.13 "HgN/A
1:00 AM57 °FCool.3 mph80%30.13 "HgN/A
12:00 AM55 °FCool.2 mph85%30.14 "HgN/A
11:00 PM
Sep 18
55 °FCool.2 mph81%30.14 "HgN/A
10:00 PM55 °FCool.1 mph81%30.14 "HgN/A
9:00 PM56 °FCool.2 mph81%30.14 "HgN/A
8:00 PM58 °FCool.1 mph73%30.14 "HgN/A
5:00 PM64 °FMild.3 mph59%30.14 "HgN/A
4:00 PM64 °FMild.3 mph57%30.15 "HgN/A
3:00 PM63 °FMild.3 mph68%30.16 "HgN/A
2:00 PM63 °FMild.3 mph70%30.17 "HgN/A
1:00 PM62 °FCool.3 mph67%30.18 "HgN/A
12:00 PM59 °FCool.5 mph68%30.19 "HgN/A
Weather by CustomWeather, © 2014

See weather overviewHow to use our weather pages